KF4URA Weather Reports


Display with metric or nautical units.
time (UTC)temp
F
wind
direction
speed
MPH
gust
MPH
rain 1hr
in
rain 24hr
in
rain mn
in
humidity
%
barometer
mb
20260503192603 61 217 2.0 11.0 0.00 0.00 0.00 37 1015.3
20260503191607 61 198 2.0 8.0 0.00 0.00 0.00 40 1015.5
20260503190558 61 225 2.0 8.0 0.00 0.00 0.00 37 1015.6
20260503185611 61 217 2.0 6.0 0.00 0.00 0.00 40 1015.8
20260503184623 60 221 2.0 8.0 0.00 0.00 0.00 39 1015.9
20260503183608 61 188 2.0 8.0 0.00 0.00 0.00 38 1016.1
20260503182554 61 263 2.0 8.0 0.00 0.00 0.00 39 1016.2
20260503181556 61 200 1.0 8.0 0.00 0.00 0.00 41 1016.3
20260503180529 61 222 2.0 7.0 0.00 0.00 0.00 38 1016.4
20260503175508 60 237 1.0 8.0 0.00 0.00 0.00 42 1016.7
20260503174451 61 294 1.0 8.0 0.00 0.00 0.00 40 1016.8
20260503173502 60 267 1.0 6.0 0.00 0.00 0.00 41 1016.9
20260503172433 59 279 2.0 6.0 0.00 0.00 0.00 42 1017.0
20260503171443 59 271 2.0 8.0 0.00 0.00 0.00 41 1017.2
20260503170446 59 270 2.0 8.0 0.00 0.00 0.00 42 1017.3
20260503150848 55 211 2.0 9.0 0.00 0.00 0.00 50 1018.2
20260503110656 30 264 0.0 0.0 0.00 0.00 0.00 94 1018.4
20260503090314 31 264 0.0 0.0 0.00 0.00 0.00 92 1017.8
20260503081145 31 264 0.0 0.0 0.00 0.00 0.00 92 1017.8
20260503080153 32 264 0.0 0.0 0.00 0.00 0.00 92 1017.8
20260503072015 32 264 0.0 0.0 0.00 0.00 0.00 91 1017.8
20260503054541 34 264 0.0 0.0 0.00 0.00 0.00 89 1018.0
20260503053604 34 264 0.0 0.0 0.00 0.00 0.00 89 1018.0
20260503051428 35 264 0.0 0.0 0.00 0.00 0.00 89 1018.0
20260503050445 35 264 0.0 0.0 0.00 0.00 0.00 88 1017.9
20260503045502 36 264 0.0 0.0 0.00 0.00 0.00 88 1017.9
20260503044510 36 264 0.0 0.0 0.00 0.00 0.00 87 1017.8
20260503042324 37 264 0.0 0.0 0.00 0.00 0.00 86 1017.8
20260503041316 37 264 0.0 0.0 0.00 0.00 0.00 86 1017.8
20260503040254 38 264 0.0 0.0 0.00 0.00 0.00 86 1017.8
20260503035304 38 264 0.0 0.0 0.00 0.00 0.00 87 1017.9
20260503034300 38 264 0.0 0.0 0.00 0.00 0.00 87 1017.9
20260503033301 38 264 0.0 0.0 0.00 0.00 0.00 86 1017.9
20260503032313 38 264 0.0 0.0 0.00 0.00 0.00 85 1018.0
20260503031324 38 264 0.0 0.0 0.00 0.00 0.00 85 1018.1
20260503030336 38 264 0.0 0.0 0.00 0.00 0.00 84 1018.0